Find DRO-L

NORAD ID: 58918 Int'l Des: NNA 2024-024 Owner: SECM Country: CN operational
LEOCIRCULARRETROGRADESSO

实时位置

正在加载3D地球...

关于 DRO-L

正在加载描述...

即将过境

Passes for default location (London). Set your location on the main map for personalized predictions.

高度历史

Loading altitude history...

两行轨道根数

1 58918U 24024B 26106.91744105 .00004234 00000-0 19103-3 0 9999
2 58918 97.3104 175.0634 0016120 351.8505 8.2467 15.21422137122033
Epoch: Apr 16, 2026 • Age: 10 hours

当前状态

高度 518.7 km
速度 7.61 km/s
星下点 74.36°N, 57.94°E
发射日期 Feb 3, 2024
运行时间 2.2 years
类型 other

技术详情

分类 Payload
质量 50.00 kg
干质量 50.00 kg
总质量 50.00 kg
长度 0.40 m
直径 0.40 m
跨度 0.40 m
形状 Box
制造商 SECM
平台类型 CX-17
阶段状态 In Orbit
所有者/国家 SECM/CN

Most Searched